Погода в Изюме

Погода в Изюме : погода сейчас, прогноз погоды и архив. Всё, что Вы хотите узнать о погоде в Изюме!

Хотите узнать прогноз погоды в Изюме? Тогда Вам сюда: Погода в Изюме

Поиск расширенной информации на нашем сайте:

Полезная информация: тенсель постельное белье купить

Другие новости

Новости СМИ2

Главная страница сайта

Новости сайта

03.07.2017

Напоминаем, что на нашем специализированном сайте Метеоцентр.Азия вы можете получить высокодетализированные автоматические прогнозы погоды по пунктам России, СНГ и мира в авиационном формате (включающие направление и скорость ветра, видимость, явления погоды, количество и форму облачности, нижнюю и верхнюю границу облачности).

Рекомендуем: Купить хоккейные нагрудники.

Погода в Изюме - сегодня

Время (UTC), дата Ветер
(°,м/с) 
Видим.   Явления Облачность Т
(°С)
Тd
(°С)
f(%) Тe
(°С)
Pmin
(гПа)
dP
(гПа)
Po
(мм)
O2
(г/м3)
Тmin Tmax R s Состояние
почвы
03 18.07.17 тихо ()   20000 м    ясно 
+13.2 +10.5 84 +15  1019.5  758  289           
06 18.07.17 090 (В) 20000 м    ясно 
+22.3 +10.2 46 +24  1019.3  0.1  758  280  +12.3         
09 18.07.17 020 (С) 20000 м    3/3 600 м 
[Cu hum]
+25.8 +7.8 32 +26  1018.4  -0.8  757  277           
12 18.07.17 050 (СВ) 20000 м    3/3 600 м 
[Cu hum]
+27.3 +7.2 28 +27  1017.1  -1.3  756  276           
15 18.07.17 050 (СВ) 20000 м    3/3 600 м 
[Cu hum]
+27.3 +8 30 +27  1016.4  -0.7  756  275           
18 18.07.17 тихо ()   10 км    ясно 
+21.7 +11.9 54 +25  1016.9  0.4  756  280           
21 18.07.17 320 (СЗ) 10 км    ясно 
+16.4 +11.6 73 +21  1017.6  0.5  756  285           
00 19.07.17 тихо ()   10 км    ясно 
+12.8 +11.1 89 +15  1017.7  756  289           
03 19.07.17 тихо ()   20000 м    ясно 
+12.1 +10.7 91 +14  1018  0.3  756  290           
06 19.07.17 тихо ()   20000 м    ясно 
+23.2 +12.1 50 +27  1018  0.3  757  279  +11.1  +3.7       
09 19.07.17 050 (СВ) 20000 м    6/4 1000 м верхняя 
[Cu med, cong|Ci fib]
+27.6 +7.7 28 +28  1016.7  -1.2  756  275      200  697   
12 19.07.17 050 (СВ) 20000 м    6/4 1000 м верхняя 
[Cu med, cong|Ci fib]
+28.6 +6.8 25 +29  1015.1  -1.5  755  274           
15 19.07.17 050 (СВ) 20000 м    8/5 1000 м верхняя 
[Cu Sc|Ci fib]
+27.1 +8.3 31 +27  1014.4  -0.7  754  275           
18 19.07.17 тихо ()   10 км    ясно 
+22.3 +13.9 59 +29  1015  0.4  754  278           
21 19.07.17 тихо ()   10 км    ясно 
+16.2 +13.9 86 +23  1015.1  -0.1  754  284           
00 20.07.17 тихо ()   10 км    ясно 
+13.5 +12.2 92 +18  1015.3  0.1  754  287           
03 20.07.17 тихо ()   16000 м    3/0 верхняя 
[Ci fib]
+13.4 +12.1 92 +17  1014.9  -0.4  754  287           
06 20.07.17 тихо ()   20000 м    ясно 
+23.3 +13.3 53 +29  1014.5  754  277  +12         
09 20.07.17 070 (В) 20000 м    8/8 1000 м 
[Cu med, cong]
+29.3 +11.7 34 +33  1013.5  -0.9  753  272           
12 20.07.17 340 (С) 20000 м    8/8 1000 м 
[Cu med, cong]
+30.5 +10.9 30 +33  1012.1  -1.3  752  271           
15 20.07.17 тихо ()   20000 м    6/4 600 м средняя 
[Cu med, cong|Ac trans]
+28.9 +14.3 41 +36  1011.6  -0.5  752  271           
18 20.07.17 тихо ()   10 км    3/3 1000 м 
[Sc diur, vesp]
+24.1 +13.7 52 +31  1012.4  0.6  753  276    +31.5       
21 20.07.17 тихо ()   10 км    ясно 
+20 +13.7 67 +26  1012.9  0.4  753  280           
00 21.07.17 тихо ()   10 км    ясно 
+15.5 +14.1 91 +23  1013.4  0.3  753  284           
03 21.07.17 тихо ()   20000 м    ясно 
+14.2 +12.9 92 +19  1014.1  0.7  754  286           
Время (UTC), дата Ветер
(°,м/с) 
Видим.   Явления Облачность Т
(°С)
Тd
(°С)
f(%) Тe
(°С)
Pmin
(гПа)
dP
(гПа)
Po
(мм)
O2
(г/м3)
Тmin Tmax R s Состояние
почвы

Для получения пояснительной информации подведите курсор к названию столбца.

ПОГОДА в Изюме - архив

Всё, что Вы хотите узнать о погоде в Изюме - удобно и подробно!

Выберите нужную дату (начиная с 1 января 2015* года) и нажмите кнопку "Найти".
Будут отображены архивные сводки погоды по пункту Изюм, начиная с указанной даты.


Отображать данные в формате CSV (для использования в таблицах Excel)


Внимание! Наш архив погоды предназначен исключительно для личного некоммерческого использования в познавательных целях. Если Вам необходимы официальные справки о состоянии погоды (для производственных, юридических, коммерческих и т.п. целей), обращайтесь в органы Росгидромета.

*Примечание: данная дата относится к архиву по метеостанциям СССР (Россия, СНГ, Балтия).
Архив по метеостанциям Зарубежной Европы и Азии (кроме Китая) хранится 10 дней, по другим регионам земного шара (Китай, Африка, Америка, Австралия, Океания) - 1 день.

Изюм - район местоположения метеостанции


Название, широта, долгота, высота метеостанции:
Изюм 49.2°ш. 37.3°д. 78 м над ур. моря [Украина]

Дополнительная информация

В oтличие oт бoльшинства пoгoдных сайтoв мы публикуем пoдрoбную метеoинфoрмацию в детальнoм прoфессиoнальнoм фoрмате.

Характеристики температуры и влажнoсти вoздуха измеряются на высoте 2 м в тени вдали oт зданий и деревьев.
Скoрoсть ветра измеряется на высoте 10 м (на урoвне рoста челoвека скoрoсть ветра ниже в 1.5-2 раза). Если метеoстанция нахoдится в гoрoде или в лесу, тo скoрoсть ветра занижена на 2-4 м/с пo сравнению с oткрытым местoм. Скoрoсть ветра над акватoриями крупных рек и oзёр, а также на вершинах хoлмoв на 2-5 м/с выше, чем в oбычных услoвиях.
Атмoсфернoе давление в разных тoчках местнoсти мoжет значительнo oтличаться oт давления на метеoстанции, в зависимoсти oт услoвий рельефа (при пoдъёме на 10 м давление пoнижается примернo на 1 мм рт.ст.).